This is the latest recevied weather packets stored in our database for station/object WX0ABE-13. If no packets are shown the sender has not sent any weather packets the latest 10 day(s).
| Time | Temp. | Humidity | Pressure | Rain* | Wind** | Luminosity | Snow |
|---|---|---|---|---|---|---|---|
| 1787630052 | 26.67° C | 43% | 1020.9 hPa | 0 mm | - | 0 W/m² | - |
| 1787629748 | 26.67° C | 42% | 1020.8 hPa | 0 mm | - | 0 W/m² | - |
| 1787629443 | 26.67° C | 41% | 1020.8 hPa | 0 mm | - | 0 W/m² | - |
| 1787629139 | 26.67° C | 41% | 1020.5 hPa | 0 mm | - | 0 W/m² | - |
| 1787628839 | 26.67° C | 41% | 1020.7 hPa | 0 mm | - | 0 W/m² | - |
| 1787628535 | 26.67° C | 41% | 1020.4 hPa | 0 mm | - | 0 W/m² | - |
| 1787628229 | 26.67° C | 43% | 1020.5 hPa | 0 mm | - | 0 W/m² | - |
| 1787627925 | 26.11° C | 46% | 1020.3 hPa | 0 mm | - | 0 W/m² | - |
| 1787627620 | 26.11° C | 51% | 1020.4 hPa | 0 mm | - | 0 W/m² | - |
| 1787627315 | 27.22° C | 49% | 1020.5 hPa | 0 mm | - | 0 W/m² | - |
| 1787627012 | 27.22° C | 45% | 1020 hPa | 0 mm | - | 0 W/m² | - |
| 1787626711 | 27.22° C | 46% | 1019.6 hPa | 0 mm | - | 0 W/m² | - |
| 1787626407 | 27.22° C | 45% | 1019.6 hPa | 0 mm | - | 0 W/m² | - |
| 1787626106 | 27.22° C | 45% | 1019.3 hPa | 0 mm | - | 0 W/m² | - |
| 1787625802 | 27.22° C | 48% | 1019.3 hPa | 0 mm | - | 0 W/m² | - |
| 1787625498 | 27.22° C | 48% | 1019.3 hPa | 0 mm | - | 0 W/m² | - |
| 1787625194 | 27.78° C | 50% | 1019.2 hPa | 0 mm | - | 0 W/m² | - |
| 1787624890 | 27.78° C | 48% | 1019 hPa | 0 mm | - | 0 W/m² | - |
| 1787624589 | 27.78° C | 45% | 1018.9 hPa | 0 mm | - | 0 W/m² | - |
| 1787624285 | 27.78° C | 45% | 1018.5 hPa | 0 mm | - | 0 W/m² | - |
| 1787623981 | 28.33° C | 44% | 1018.6 hPa | 0 mm | - | 0 W/m² | - |
| 1787623681 | 28.33° C | 43% | 1018.4 hPa | 0 mm | - | 0 W/m² | - |
| 1787623375 | 28.89° C | 42% | 1018.4 hPa | 0 mm | - | 0 W/m² | - |
| 1787623074 | 28.89° C | 42% | 1018.3 hPa | 0 mm | - | 0 W/m² | - |
| 1787622770 | 28.89° C | 43% | 1018.2 hPa | 0 mm | - | 0 W/m² | - |
* Rain latest hour (hover to see other rain measurements)
** Current wind speed in m/s (hover to see current wind gust speed)